TimeCDT,TemperatureF,Dew PointF,Humidity,Sea Level PressureIn,VisibilityMPH,Wind Direction,Wind SpeedMPH,Gust SpeedMPH,PrecipitationIn,Events,Conditions,WindDirDegrees,DateUTC
12:15 AM,66.2,55.4,68,29.70,10.0,SW,4.6,-,N/A,,Overcast,230,2013-05-22 05:15:00
12:35 AM,66.2,55.4,68,29.70,10.0,SW,4.6,-,N/A,,Overcast,220,2013-05-22 05:35:00
12:55 AM,66.2,55.4,68,29.69,10.0,Calm,Calm,-,N/A,,Overcast,0,2013-05-22 05:55:00
1:15 AM,64.4,55.4,73,29.69,10.0,SW,4.6,-,N/A,,Mostly Cloudy,220,2013-05-22 06:15:00
1:35 AM,64.4,55.4,73,29.69,10.0,WSW,4.6,-,N/A,,Overcast,250,2013-05-22 06:35:00
1:55 AM,64.4,55.4,73,29.69,10.0,West,5.8,-,N/A,,Overcast,260,2013-05-22 06:55:00
2:15 AM,64.4,55.4,73,29.68,10.0,West,4.6,-,N/A,,Mostly Cloudy,270,2013-05-22 07:15:00
2:35 AM,64.4,55.4,73,29.68,10.0,West,4.6,-,N/A,,Scattered Clouds,270,2013-05-22 07:35:00
2:55 AM,64.4,55.4,73,29.67,10.0,West,6.9,-,N/A,,Clear,270,2013-05-22 07:55:00
3:15 AM,64.4,53.6,68,29.67,10.0,WNW,5.8,-,N/A,,Clear,300,2013-05-22 08:15:00
3:35 AM,64.4,53.6,68,29.67,10.0,WNW,4.6,-,N/A,,Clear,300,2013-05-22 08:35:00
3:55 AM,62.6,53.6,72,29.66,10.0,WNW,4.6,-,N/A,,Clear,290,2013-05-22 08:55:00
4:15 AM,62.6,53.6,72,29.67,10.0,West,3.5,-,N/A,,Clear,280,2013-05-22 09:15:00
4:35 AM,62.6,53.6,72,29.67,10.0,Calm,Calm,-,N/A,,Mostly Cloudy,0,2013-05-22 09:35:00
4:55 AM,62.6,51.8,68,29.66,10.0,Calm,Calm,-,N/A,,Overcast,0,2013-05-22 09:55:00
5:15 AM,64.4,53.6,68,29.67,10.0,Calm,Calm,-,N/A,,Overcast,0,2013-05-22 10:15:00
5:35 AM,62.6,53.6,72,29.66,10.0,Calm,Calm,-,N/A,,Overcast,0,2013-05-22 10:35:00
5:55 AM,62.6,53.6,72,29.67,10.0,Calm,Calm,-,N/A,,Overcast,0,2013-05-22 10:55:00
6:15 AM,62.6,53.6,72,29.67,10.0,Calm,Calm,-,N/A,,Overcast,0,2013-05-22 11:15:00
6:35 AM,62.6,53.6,72,29.68,10.0,Calm,Calm,-,N/A,,Overcast,0,2013-05-22 11:35:00
6:55 AM,62.6,53.6,72,29.69,10.0,SW,3.5,-,N/A,,Overcast,230,2013-05-22 11:55:00
7:15 AM,62.6,53.6,72,29.69,10.0,WSW,4.6,-,N/A,,Overcast,240,2013-05-22 12:15:00
7:55 AM,62.6,51.8,68,29.70,10.0,West,4.6,-,N/A,,Scattered Clouds,260,2013-05-22 12:55:00
8:15 AM,66.2,53.6,64,29.70,10.0,West,6.9,-,N/A,,Clear,260,2013-05-22 13:15:00
8:55 AM,66.2,51.8,60,29.70,10.0,West,8.1,-,N/A,,Clear,270,2013-05-22 13:55:00
9:15 AM,68.0,53.6,60,29.71,10.0,West,6.9,-,N/A,,Clear,270,2013-05-22 14:15:00
9:35 AM,68.0,51.8,56,29.71,10.0,West,9.2,-,N/A,,Clear,260,2013-05-22 14:35:00
9:55 AM,68.0,53.6,60,29.71,10.0,West,10.4,-,N/A,,Clear,260,2013-05-22 14:55:00
10:15 AM,69.8,53.6,56,29.71,10.0,WSW,11.5,17.3,N/A,,Scattered Clouds,250,2013-05-22 15:15:00
10:35 AM,68.0,53.6,60,29.72,10.0,West,11.5,-,N/A,,Scattered Clouds,260,2013-05-22 15:35:00
10:55 AM,69.8,53.6,56,29.72,10.0,WSW,13.8,-,N/A,,Mostly Cloudy,250,2013-05-22 15:55:00
11:15 AM,69.8,53.6,56,29.72,10.0,West,20.7,24.2,N/A,,Overcast,260,2013-05-22 16:15:00
11:35 AM,68.0,51.8,56,29.72,10.0,WSW,15.0,-,N/A,,Overcast,240,2013-05-22 16:35:00
11:55 AM,66.2,51.8,60,29.73,10.0,West,16.1,19.6,N/A,,Overcast,260,2013-05-22 16:55:00
12:15 PM,66.2,51.8,60,29.73,10.0,WSW,15.0,20.7,N/A,,Overcast,240,2013-05-22 17:15:00
12:35 PM,69.8,51.8,53,29.73,10.0,West,15.0,19.6,N/A,,Overcast,260,2013-05-22 17:35:00
12:55 PM,69.8,51.8,53,29.73,10.0,West,15.0,20.7,N/A,,Overcast,260,2013-05-22 17:55:00
1:15 PM,69.8,51.8,53,29.73,10.0,WSW,16.1,24.2,N/A,,Overcast,250,2013-05-22 18:15:00
1:35 PM,68.0,53.6,60,29.73,10.0,WSW,11.5,-,N/A,,Overcast,250,2013-05-22 18:35:00
1:55 PM,69.8,53.6,56,29.73,10.0,WSW,10.4,-,N/A,,Overcast,250,2013-05-22 18:55:00
2:15 PM,68.0,53.6,60,29.74,10.0,WSW,12.7,18.4,N/A,,Overcast,250,2013-05-22 19:15:00
2:35 PM,68.0,51.8,56,29.75,10.0,WSW,15.0,18.4,N/A,,Overcast,250,2013-05-22 19:35:00
2:55 PM,68.0,53.6,60,29.75,10.0,West,12.7,18.4,N/A,,Overcast,260,2013-05-22 19:55:00
3:15 PM,68.0,53.6,60,29.75,10.0,West,15.0,-,N/A,,Overcast,260,2013-05-22 20:15:00
3:35 PM,66.2,53.6,64,29.75,10.0,West,13.8,-,N/A,,Overcast,260,2013-05-22 20:35:00
3:55 PM,66.2,53.6,64,29.76,10.0,West,11.5,-,N/A,,Overcast,270,2013-05-22 20:55:00
4:15 PM,66.2,53.6,64,29.76,10.0,West,12.7,18.4,N/A,,Overcast,280,2013-05-22 21:15:00
4:35 PM,66.2,53.6,64,29.76,10.0,West,12.7,20.7,N/A,,Overcast,270,2013-05-22 21:35:00
4:55 PM,66.2,53.6,64,29.76,10.0,West,11.5,-,N/A,,Overcast,270,2013-05-22 21:55:00
5:15 PM,64.4,51.8,64,29.77,10.0,WNW,13.8,18.4,N/A,,Overcast,290,2013-05-22 22:15:00
5:35 PM,62.6,51.8,68,29.78,7.0,West,11.5,19.6,N/A,,Overcast,280,2013-05-22 22:35:00
5:55 PM,62.6,53.6,72,29.78,10.0,West,6.9,-,N/A,,Overcast,280,2013-05-22 22:55:00
6:15 PM,62.6,53.6,72,29.78,10.0,West,8.1,-,N/A,,Overcast,270,2013-05-22 23:15:00
6:35 PM,62.6,51.8,68,29.78,10.0,SW,8.1,-,N/A,,Overcast,230,2013-05-22 23:35:00
6:55 PM,62.6,53.6,72,29.78,10.0,WSW,6.9,-,N/A,,Overcast,240,2013-05-22 23:55:00
7:15 PM,64.4,53.6,68,29.79,10.0,West,11.5,17.3,N/A,,Overcast,260,2013-05-23 00:15:00
7:35 PM,64.4,51.8,64,29.80,10.0,West,10.4,-,N/A,,Overcast,260,2013-05-23 00:35:00
7:55 PM,62.6,51.8,68,29.80,10.0,WSW,8.1,-,N/A,,Overcast,250,2013-05-23 00:55:00
8:15 PM,62.6,51.8,68,29.80,10.0,WSW,5.8,-,N/A,,Overcast,250,2013-05-23 01:15:00
8:35 PM,60.8,51.8,72,29.82,2.5,West,15.0,23.0,N/A,Rain,Rain,280,2013-05-23 01:35:00
8:55 PM,60.8,51.8,72,29.82,10.0,WNW,10.4,-,N/A,,Overcast,290,2013-05-23 01:55:00
9:15 PM,60.8,51.8,72,29.82,10.0,WNW,6.9,-,N/A,,Overcast,300,2013-05-23 02:15:00
9:35 PM,60.8,51.8,72,29.83,10.0,West,6.9,-,N/A,,Overcast,280,2013-05-23 02:35:00
9:55 PM,60.8,51.8,72,29.84,5.0,West,13.8,-,N/A,,Haze,280,2013-05-23 02:55:00
10:15 PM,60.8,51.8,72,29.84,10.0,West,9.2,-,N/A,,Overcast,270,2013-05-23 03:15:00
10:35 PM,60.8,51.8,72,29.84,10.0,West,6.9,-,N/A,,Overcast,270,2013-05-23 03:35:00
10:55 PM,60.8,51.8,72,29.84,10.0,West,9.2,-,N/A,,Mostly Cloudy,270,2013-05-23 03:55:00
11:15 PM,60.8,51.8,72,29.85,10.0,West,9.2,-,N/A,,Overcast,270,2013-05-23 04:15:00
11:35 PM,60.8,50.0,68,29.85,10.0,West,9.2,-,N/A,,Overcast,270,2013-05-23 04:35:00
11:55 PM,60.8,50.0,68,29.85,10.0,West,9.2,-,N/A,,Overcast,270,2013-05-23 04:55:00